Regional Weather Roundup
Issued by NWS

Home | Current Version | Previous Version | Graphics & Text | Print | Product List | Glossary On
Versions: 1 2 3 4 5 6 7 8 9 10 11 12 13 14 15 16 17 18 19 20 21 22 23 24 25 26 27 28 29 30 31 32 33 34 35 36 37 38 39 40 41 42 43 44 45 46 47 48 49 50
000
ASUS43 KLMK 051802
RWRKY
KENTUCKY REGIONAL WEATHER ROUNDUP
NATIONAL WEATHER SERVICE LOUISVILLE KY
200 PM EDT TUE MAY 05 2015

NOTE "FAIR" INDICATES FEW OR NO CLOUDS BELOW 12,000 FEET
WITH NO SIGNIFICANT WEATHER AND/OR OBSTRUCTIONS TO VISIBILITY.

KYZ001>023-026-027-061>063-070>075-051900-
WESTERN AND SOUTH CENTRAL KENTUCKY

CITY           SKY/WX    TMP DP  RH WIND       PRES   REMARKS
PADUCAH        PTSUNNY   84  55  36 SW12      30.20F
HENDERSON      PTSUNNY   82  54  36 S10G16    30.21F
OWENSBORO      MOSUNNY   84  58  41 SW8       30.24F
HOPKINSVILLE   SUNNY     83  54  37 SW7       30.24F
BOWLING GREEN  MOSUNNY   80  53  39 SW7       30.26F
GLASGOW        NOT AVBL
$$

KYZ024-025-028>034-038-045-046-053-051900-
NORTH CENTRAL KENTUCKY

CITY           SKY/WX    TMP DP  RH WIND       PRES   REMARKS
LOUISVILLE/SDF PTSUNNY   84  54  35 VRB6      30.24F
LOUISVILLE/LOU PTSUNNY   82  53  36 SW9       30.24F
FORT KNOX      MOSUNNY   83  53  36 S7        30.24F
$$

KYZ035>037-039>044-047>052-055>060-089>105-051900-
NORTHEAST KENTUCKY

CITY           SKY/WX    TMP DP  RH WIND       PRES   REMARKS
LEXINGTON      PTSUNNY   81  55  40 MISG      30.28F
COVINGTON      PTSUNNY   80  54  40 W9        30.25F
FRANKFORT      MOSUNNY   80  54  40 SW7       30.26F
$$

KYZ054-064>069-076>088-106>120-051900-
SOUTHEAST KENTUCKY

CITY           SKY/WX    TMP DP  RH WIND       PRES   REMARKS
JACKSON        MOSUNNY   80  50  34 VRB6      30.30F
LONDON         SUNNY     81  47  30 CALM      30.29F
SOMERSET       NOT AVBL
MIDDLESBORO    SUNNY     80  52  37 CALM      30.29F
MONTICELLO     PTCLDY    84  52  33 VRB7      30.31F
$$



USA.gov is the U.S. government's official web portal to all federal, state and local government web resources and services.